#timestamp,LO_Frequency,Hit,StdDev 
1673413215.7,286047002.6,N
1673413235.5,286047002.5,N
1673413255.4,286046999.8,N
1673413275.2,286046999.9,N
1673413295.0,286047002.1,N
1673413295.9,286047002.1,N
1673413315.8,286047002.2,N
1673413335.6,286047004.2,Y
1673413355.4,286047002.4,P
1673413375.3,286047001.3,N
1673413395.1,286047002.3,P
1673413415.9,286047002.7,Y
1673413435.7,286046998.6,P
1673413455.5,286047000.8,N
1673413475.4,286046998.2,N
1673413495.2,286046999.0,N
1673413515.0,286046996.6,N
1673413516.0,286046996.6,N
1673413535.8,286046998.4,N
1673413555.6,286047000.5,N
1673413575.5,286047000.4,N
1673413595.3,286047000.4,N
1673413615.1,286047000.5,N
1673413635.9,286046999.1,N
1673413655.7,286046999.5,N
1673413675.5,286046999.2,N
1673413695.4,286047000.8,N
1673413715.2,286046998.6,N
1673413735.1,286046999.3,N
1673413736.0,286046999.3,N
1673413755.8,286046998.9,N
1673413775.6,286046996.5,N
1673413795.5,286046998.9,N
1673413815.3,286046998.8,N
1673413835.2,286046998.4,N
1673413855.9,286046998.1,N
1673413875.7,286046999.5,N
1673413895.6,286046995.7,Y
1673413915.4,286046997.5,P
1673413935.2,286046996.5,P
1673413955.1,286046996.9,N
1673413956.0,286046996.9,Y
1673413975.8,286047000.0,P
1673413995.7,286046999.7,N
1673414015.5,286047001.9,N
1673414035.3,286047001.3,N
1673414055.2,286047001.8,N
1673414075.0,286047001.4,N
1673414075.9,286047001.4,N
1673414095.8,286047002.3,N
1673414115.6,286047001.8,N
1673414135.4,286047001.8,N
1673414155.3,286047003.8,N
1673414175.1,286047006.0,Y
1673414195.8,286047005.8,P
1673414215.7,286047006.0,N
1673414235.5,286047003.2,N
1673414255.4,286047004.5,N
1673414275.2,286047003.4,N
1673414295.1,286047003.3,N
1673414296.0,286047003.3,N
1673414315.8,286047001.3,N
1673414335.6,286047000.8,N
1673414355.5,286046999.3,N
1673414375.3,286047000.8,N
1673414395.1,286047000.4,N
1673414415.9,286046999.0,N
1673414435.7,286046999.2,N
1673414455.5,286046998.1,N
1673414475.4,286047000.5,N
1673414495.2,286047000.0,N
1673414515.1,286047000.2,N
1673414516.0,286047000.2,N
1673414535.8,286047002.0,N
1673414555.6,286047001.5,N
1673414575.5,286047001.7,N
1673414595.3,286047001.3,N
1673414615.1,286047004.4,N
1673414635.9,286047004.4,N
1673414655.7,286047004.0,N
1673414675.6,286047001.5,N
1673414695.4,286047001.5,N
1673414715.2,286047001.4,N
1673414735.1,286047002.9,N
1673414736.0,286047002.9,N
1673414755.8,286047005.0,N
1673414775.7,286047005.8,Y
1673414795.5,286047001.4,P
1673414815.3,286047002.2,P
1673414835.2,286047000.9,N
1673414855.9,286046999.9,N
1673414875.7,286046999.7,N
1673414895.6,286047001.5,N
1673414915.4,286047002.3,N
1673414935.2,286047002.5,N
1673414955.1,286046999.8,N
1673414956.0,286046999.8,N
1673414975.8,286047000.2,N
1673414995.7,286046999.7,N
1673415015.5,286047002.4,N
1673415035.3,286047002.6,N
1673415055.2,286047001.9,N
1673415075.0,286047002.5,N
1673415075.9,286047002.5,N
1673415095.7,286047001.9,N
1673415115.6,286047000.2,N
1673415135.4,286047001.6,N
1673415155.3,286047002.6,N
1673415175.1,286046999.7,N
1673415176.0,286046999.7,N
1673415195.8,286047000.8,N
1673415215.7,286046998.2,N
1673415235.5,286047000.9,N
1673415255.4,286047000.8,N
1673415275.2,286046999.3,N
1673415295.0,286046998.1,N
1673415295.9,286046998.1,N
1673415315.8,286047001.0,N
1673415335.6,286046998.2,N
1673415355.5,286047002.7,N
1673415375.3,286046999.1,N
1673415395.1,286046998.3,N
1673415415.9,286047000.7,N
1673415435.7,286047000.2,N
1673415455.5,286047000.8,N
1673415475.4,286047000.5,N
1673415495.2,286047001.0,N
1673415515.0,286047001.0,N
1673415516.0,286047001.0,N
1673415535.8,286047002.4,N
1673415555.6,286047000.2,N
1673415575.5,286046999.7,N
1673415595.3,286046999.8,N
1673415615.2,286047004.4,Y
1673415635.9,286047001.6,P
1673415655.7,286047001.9,P
1673415675.6,286047000.2,N
1673415695.4,286047000.4,N
1673415715.2,286047000.2,N
1673415735.1,286046999.9,N
1673415736.0,286046999.9,N
1673415755.8,286047002.2,Y
1673415775.7,286047001.5,P
1673415795.5,286047000.7,N
1673415815.3,286046999.2,N
1673415835.2,286046998.5,N
1673415855.9,286047000.3,N
1673415875.7,286047000.8,N
1673415895.6,286047001.1,N
1673415915.4,286047000.0,N
1673415935.3,286047000.5,N
1673415955.1,286047000.0,N
1673415956.0,286047000.0,N
1673415975.8,286047000.9,N
1673415995.7,286047001.1,N
1673416015.5,286046998.4,N
1673416035.3,286047000.6,N
1673416055.2,286046998.3,N
1673416075.0,286047000.8,N
1673416075.9,286047000.8,N
1673416095.8,286046999.8,N
1673416115.6,286047000.0,N
1673416135.4,286046999.8,N
1673416155.3,286046999.0,N
1673416175.1,286046998.4,N
1673416195.9,286046998.1,N
1673416215.7,286046998.5,N
1673416235.5,286046999.2,N
1673416255.4,286046999.5,N
1673416275.2,286046998.2,N
1673416295.0,286047000.6,N
1673416295.9,286047000.6,N
1673416315.8,286047001.2,N
1673416335.6,286046998.1,N
1673416355.5,286047001.0,N
1673416375.3,286047000.9,N
1673416395.1,286047001.0,N
1673416415.9,286047000.5,N
1673416435.7,286047002.7,N
1673416455.6,286047001.6,N
1673416475.4,286047002.8,N
1673416495.2,286046999.7,N
1673416515.1,286047000.9,N
1673416516.0,286047000.9,N
1673416535.8,286047000.9,N
1673416555.7,286047001.0,N
1673416575.7,286046998.5,N
1673416595.6,286047000.1,N
1673416615.4,286047000.8,N
1673416635.2,286047000.0,N
1673416655.1,286047000.6,N
1673416656.0,286047000.6,N
1673416675.8,286047000.9,N
1673416695.7,286047002.2,N
1673416715.5,286047002.2,N
1673416735.4,286047000.2,N
1673416755.2,286047000.1,N
1673416775.0,286047000.2,N
1673416775.9,286047000.2,N
1673416795.8,286047002.5,N
